Probability
0 0 0 0 0 0 0 0 0 0 0 0 0 0 0 1 2 2 3 4 4 4 3 2 2 1 0 0 1 1 1 0 0 0 0 0 0 0 0 0 0 0 0
0 0 0 0 0 0 0 0 0 0 0 0 0 0 0 0 1 2 3 4 5 4 3 3 2 1 0 0 0 1 1 1 0 0 0 0 0 0 0 0 0 0 0
0 0 0 0 0 0 0 0 0 0 0 0 0 0 0 0 1 2 4 5 6 4 3 2 1 0 0 0 0 0 1 2 1 0 0 0 0 0 0 0 0 0 0
0 0 0 0 0 0 0 0 0 0 0 0 0 0 0 0 1 2 4 5 5 4 2 1 0 0 0 0 0 0 1 2 1 0 0 0 0 0 0 0 0 0 0
0 0 0 1 1 1 0 0 0 0 0 0 0 0 0 0 1 2 4 4 4 3 1 0 0 0 0 0 0 0 1 2 2 1 0 0 0 0 0 0 0 0 0
0 0 1 1 2 2 1 0 0 0 0 0 0 0 0 0 1 2 2 2 2 1 0 0 0 0 0 0 0 0 1 2 2 1 0 0 0 0 0 0 0 0 0
1 1 2 3 3 2 1 0 0 0 0 1 1 0 0 0 1 1 1 1 1 0 0 0 0 0 0 0 0 0 0 1 1 0 0 0 0 0 0 0 0 0 0
2 3 4 4 3 2 1 0 0 0 0 1 1 0 0 0 0 0 0 0 1 0 0 0 0 0 0 0 0 0 0 0 0 0 0 0 0 0 0 0 0 0 0
2 3 5 4 2 1 0 0 0 0 0 1 1 0 0 0 0 0 0 0 0 0 0 0 0 0 0 0 0 0 0 0 0 0 0 0 0 0 0 0 0 0 0
1 3 4 4 3 2 1 0 0 0 0 0 0 0 0 0 0 0 0 0 0 0 0 0 0 0 0 0 0 0 0 0 0 0 0 0 0 0 0 1 1 1 1
0 1 3 4 4 3 2 1 0 0 0 0 0 0 0 0 0 0 0 0 0 0 0 0 0 0 0 0 0 0 0 0 0 0 0 0 0 0 0 1 2 3 2
0 0 1 3 4 4 3 1 1 1 0 0 0 0 0 0 0 0 0 0 0 0 0 0 0 0 0 0 0 0 0 0 0 0 0 0 1 1 1 1 2 2 2
0 0 1 3 5 5 4 3 2 2 1 0 0 0 0 0 0 0 0 0 0 0 0 0 0 0 0 0 0 0 0 0 0 0 0 1 2 2 1 1 1 1 1
0 0 1 2 3 4 3 3 3 3 2 1 1 0 0 0 0 0 0 0 0 0 0 0 0 0 0 0 0 0 0 0 0 0 0 1 2 2 2 1 2 1 0
0 0 1 1 1 2 2 2 2 2 2 2 2 1 0 0 0 0 0 0 0 0 0 0 0 0 0 0 0 0 0 0 0 0 0 0 1 1 1 2 3 3 2
0 0 1 1 1 2 3 2 1 1 1 2 3 2 1 0 0 0 0 0 0 0 0 0 0 0 0 0 0 0 0 0 0 0 0 0 0 0 0 1 3 4 3
0 0 0 1 2 3 3 3 1 0 0 1 2 3 2 1 0 0 0 0 0 0 0 0 0 0 0 0 0 0 0 0 0 0 0 0 0 0 0 0 1 3 4
0 0 0 0 1 2 3 3 3 1 1 0 1 3 3 2 0 0 0 0 0 0 0 0 0 0 0 0 0 0 0 0 0 0 0 0 0 0 0 0 1 2 3
0 0 0 0 1 2 3 3 4 3 2 1 1 2 2 1 0 0 0 0 0 0 0 0 0 0 0 0 0 0 0 0 0 0 0 0 0 0 0 0 0 1 2
0 0 0 0 1 2 2 2 3 4 3 1 0 1 1 0 0 0 0 0 0 0 0 0 0 0 0 0 0 0 0 0 0 0 0 0 0 0 0 0 0 0 1
0 0 0 0 0 1 1 1 2 3 3 2 0 0 0 0 0 0 0 0 0 0 0 0 0 0 0 0 0 0 0 0 0 0 0 0 0 0 0 0 0 0 0
0 0 0 0 0 0 0 0 1 1 2 1 0 0 0 0 0 0 0 0 0 0 0 0 0 0 0 0 0 0 0 0 0 0 0 0 0 0 0 0 0 0 0
0 0 0 0 0 0 0 0 0 0 0 0 0 0 0 0 0 0 0 0 0 0 0 0 0 0 0 0 0 0 0 0 0 0 0 0 0 0 0 0 0 0 0
0 0 0 0 0 0 0 0 0 0 0 0 0 0 0 0 0 0 0 0 0 0 0 0 0 0 0 0 0 0 0 0 0 0 0 0 0 0 0 0 0 0 0
0 0 0 0 0 0 0 0 0 0 0 0 0 0 0 0 0 0 0 0 0 0 0 0 0 0 0 0 0 0 0 0 0 0 0 0 0 0 0 0 0 0 0
0 0 0 0 0 0 0 0 0 0 0 0 0 0 0 0 0 0 0 0 0 0 0 0 0 0 0 0 0 0 0 0 0 0 0 0 0 0 0 0 0 0 0
Wind_Speed
3 4 7 7 9 9 8 8 8 8 8 8 8 9 9 9 9 9 9 9 9 9 9 9 10 10 10 10 10 11 11 10 10 10 11 11 11 10 11 11 10 6 11
6 5 7 7 9 9 8 8 8 8 8 8 8 9 9 9 9 9 9 8 8 8 9 8 8 9 9 10 10 10 10 10 9 9 9 9 9 9 9 10 9 6 10
7 5 6 7 9 9 8 8 8 8 8 8 9 9 9 9 9 9 8 8 8 8 8 8 8 8 9 9 9 9 9 9 9 8 7 4 5 8 9 9 9 9 9
7 6 6 7 9 9 9 8 8 8 8 8 9 9 9 9 9 8 8 7 8 8 8 8 8 8 8 8 8 8 9 8 8 7 4 3 3 7 8 8 8 8 8
6 5 6 8 8 9 8 8 7 7 7 8 8 8 8 9 8 7 7 7 7 7 7 7 8 8 8 8 7 8 8 8 7 6 3 3 2 7 7 8 8 8 8
6 5 6 8 8 8 8 7 7 7 7 7 8 8 8 8 8 7 6 6 6 7 7 7 7 7 7 7 7 8 8 8 5 3 3 2 2 6 7 8 8 8 8
6 4 6 8 8 8 8 7 7 7 7 7 7 7 7 7 7 6 6 6 6 7 7 7 7 7 7 7 7 7 8 7 4 3 2 2 3 6 7 7 7 7 7
7 5 5 7 7 7 7 7 6 6 7 7 7 7 7 7 7 6 6 6 6 6 6 7 7 7 6 7 7 7 8 6 4 3 2 2 4 6 6 7 6 7 7
6 5 4 4 5 6 6 5 5 6 6 6 6 6 6 6 6 6 5 6 6 6 6 7 7 6 6 7 7 7 7 7 3 2 2 1 4 6 6 6 6 6 6
5 4 4 3 3 3 3 5 5 5 5 5 5 5 5 5 4 4 4 5 5 6 6 6 6 6 6 6 6 6 6 5 3 2 1 1 4 5 5 5 5 5 5
4 3 3 3 3 3 3 4 4 4 4 4 3 5 4 2 2 2 3 4 5 5 6 6 6 5 5 5 5 5 4 2 2 1 0 2 4 4 4 4 5 4 4
4 3 3 3 3 3 3 3 2 2 2 2 2 2 2 2 2 3 4 4 4 5 5 5 5 4 4 2 3 4 2 2 1 1 1 2 3 3 4 4 4 4 3
5 4 3 3 3 3 2 2 2 1 2 2 2 3 2 2 2 2 2 2 2 3 2 2 2 1 1 1 1 1 1 1 1 1 0 2 3 3 3 3 3 3 3
4 4 4 4 3 3 2 2 2 2 2 2 2 3 3 2 2 2 1 1 1 1 2 1 1 1 1 1 1 1 1 0 0 0 1 1 2 2 2 2 2 2 2
4 5 5 4 4 3 3 2 2 2 2 2 2 2 3 3 2 2 2 1 1 1 1 1 1 1 1 1 0 1 0 0 0 1 0 0 1 1 2 2 2 2 1
5 4 4 5 5 4 3 3 2 2 2 2 2 3 3 3 3 3 2 2 1 1 1 1 2 1 1 1 0 0 0 1 1 1 1 0 0 0 1 1 1 1 1
5 4 4 4 4 5 5 4 3 2 2 2 2 3 3 3 3 3 3 2 2 1 1 1 1 1 1 1 0 0 0 1 1 1 1 0 0 1 1 1 2 2 2
5 5 4 4 4 4 4 4 3 3 3 2 2 2 3 4 4 3 3 2 2 2 2 2 1 1 0 0 0 1 1 0 1 1 1 1 0 0 1 2 2 3 4
6 5 5 4 4 4 4 4 3 3 3 2 2 2 2 3 4 3 3 2 2 2 1 2 1 1 1 0 1 0 1 0 1 0 1 1 1 1 0 1 2 2 3
5 5 5 4 4 3 3 3 2 2 2 2 2 2 3 3 3 3 3 2 3 2 2 1 1 1 1 1 0 1 1 1 1 1 1 1 1 1 1 1 1 2 3
4 5 5 4 4 3 3 3 3 4 3 2 2 3 3 3 3 3 3 3 2 3 3 2 1 1 0 1 1 1 2 1 1 1 1 1 1 1 1 1 1 1 2
5 5 5 5 5 4 3 3 3 3 2 2 2 3 3 3 3 3 4 3 3 2 2 2 2 1 1 1 2 1 1 2 2 2 1 1 2 1 2 2 2 2 1
5 6 6 5 5 4 3 2 2 1 1 1 2 3 3 4 4 4 4 4 3 3 3 3 3 3 2 1 1 2 2 2 2 2 2 2 2 2 2 2 3 3 3
5 5 5 5 5 4 4 4 4 4 3 3 3 2 3 3 4 4 4 4 4 3 3 3 3 2 3 2 1 1 1 2 1 2 2 2 2 3 3 3 3 3 3
3 4 4 4 4 4 4 5 4 3 2 1 2 2 2 2 3 3 4 4 4 3 3 3 3 3 3 3 2 1 1 1 1 2 3 3 2 3 3 4 3 3 3
2 2 3 4 4 3 4 4 4 4 3 2 2 3 2 2 2 3 3 3 4 3 4 4 4 4 3 3 3 3 3 2 3 2 3 3 4 3 3 3 3 4 3
Wind_Direction
166 174 155 147 137 130 126 121 118 114 113 112 111 110 109 107 106 103 100 98 96 94 91 87 82 81 79 79 78 76 75 74 73 71 72 76 76 76 75 73 68 64 74
155 163 150 145 139 132 128 125 122 117 115 118 117 114 112 111 109 106 103 101 100 96 92 89 85 84 81 81 80 76 74 74 72 70 70 71 75 76 77 76 77 73 76
140 149 148 138 136 133 129 127 124 119 116 119 118 116 114 111 110 107 104 100 100 97 93 92 92 90 87 85 83 79 76 78 74 68 63 54 69 77 79 79 79 77 75
140 143 145 135 132 131 129 126 125 121 117 116 118 117 115 112 108 103 100 100 99 97 96 96 95 93 92 89 85 81 78 80 76 67 57 51 62 81 81 82 81 76 75
134 138 142 137 134 130 130 126 125 121 119 117 119 119 118 115 110 106 104 103 101 97 98 97 93 96 94 89 84 84 82 82 73 59 51 49 62 84 84 87 84 79 74
129 131 140 140 139 135 134 132 128 125 123 121 122 123 119 115 111 108 109 108 104 102 103 99 93 93 92 90 86 86 86 80 66 51 45 44 62 87 87 90 87 82 77
132 131 142 140 141 139 135 133 130 128 128 129 127 125 121 118 114 112 110 111 109 109 106 101 94 91 89 89 87 86 82 71 67 55 47 47 77 90 91 93 92 87 82
136 132 139 136 135 136 137 132 127 126 128 130 127 126 124 119 116 115 112 115 114 112 108 102 94 88 87 85 86 83 74 63 64 57 51 64 85 91 96 95 93 90 84
131 133 139 143 137 134 133 130 125 126 127 125 124 123 122 122 120 118 117 115 116 109 104 99 92 85 84 81 80 78 73 63 56 49 60 72 92 95 94 97 94 89 87
121 133 140 142 140 141 140 135 125 127 129 125 120 118 115 117 114 111 116 117 115 114 107 100 92 86 82 78 77 76 69 60 54 48 53 94 98 101 98 98 96 94 90
125 131 138 138 141 144 147 141 131 127 130 126 120 121 116 117 114 107 108 117 117 114 110 104 94 84 73 68 70 71 61 52 50 38 39 91 104 102 100 100 97 94 90
159 161 147 141 145 143 149 139 140 133 132 125 119 125 125 119 110 102 97 106 105 105 105 102 91 78 62 47 49 56 53 48 53 29 40 85 106 105 107 106 100 95 91
171 163 158 155 147 147 151 153 151 145 141 132 130 125 122 118 108 95 95 91 93 93 91 89 77 65 66 63 50 53 54 42 32 1 357 96 105 116 123 118 111 103 99
170 174 170 164 157 154 152 164 161 154 158 157 159 143 129 124 120 126 120 110 99 101 113 109 109 83 64 56 69 75 61 51 169 278 288 102 107 127 135 134 131 121 117
177 182 179 174 170 167 157 172 162 167 169 160 158 157 146 143 143 136 131 126 126 129 140 139 139 134 112 79 82 98 90 211 182 153 304 48 88 162 169 160 158 156 154
187 188 184 183 180 173 171 176 171 168 163 156 160 167 155 151 152 147 139 143 149 156 160 157 160 163 167 150 147 154 200 219 180 151 170 239 4 256 214 196 181 193 217
190 188 185 185 183 180 176 180 172 172 160 160 170 170 159 155 154 152 152 159 166 161 149 137 130 135 145 127 170 259 231 216 174 161 159 171 273 342 337 279 247 247 250
185 186 190 182 181 188 184 181 175 169 164 167 165 163 161 158 154 151 156 167 166 155 148 150 147 134 139 144 232 277 270 202 183 180 169 158 160 298 307 302 305 281 273
187 185 185 182 184 189 187 180 168 162 165 167 157 159 164 159 155 153 161 168 157 147 151 159 145 142 163 199 249 275 288 224 225 190 176 175 186 191 243 308 314 313 295
184 182 181 179 181 180 174 161 152 154 169 164 169 177 168 166 161 153 155 161 156 152 155 151 145 132 161 181 213 312 297 270 251 225 220 208 218 219 233 275 292 298 296
175 178 180 179 180 167 167 171 175 190 187 181 186 178 169 165 164 158 159 162 165 168 169 162 148 151 150 106 75 343 321 299 282 257 239 238 248 239 228 243 252 265 291
186 188 186 185 182 180 184 184 185 180 190 188 179 180 179 173 177 172 169 176 178 170 161 162 145 155 189 153 129 108 316 313 296 260 248 243 256 260 255 252 246 242 253
193 195 194 193 186 186 170 144 124 109 107 166 193 196 194 183 184 184 184 180 182 176 182 186 179 170 185 204 167 156 167 233 287 287 249 244 252 255 259 260 250 244 236
205 198 191 186 184 180 166 160 162 177 189 205 198 196 191 187 186 188 191 186 185 187 189 193 187 189 171 190 220 232 198 167 192 287 298 266 254 251 249 253 253 249 242
196 187 182 176 178 174 172 174 178 188 197 185 170 170 185 196 196 192 192 195 192 193 193 193 191 190 190 188 187 188 208 225 206 206 265 288 286 253 245 244 244 245 242
172 169 169 171 179 172 176 179 189 194 186 174 189 188 197 204 209 207 200 203 202 200 198 201 201 199 205 201 197 193 189 192 202 199 235 263 273 271 256 243 239 241 240